Location: Kalberh�ni
(46.4610°N, 7.2453°E)
Time: 06:35:25
(UTC+00:00)

Cosmos 1953 - Pass Details

Date: 20 June 2021
Orbit: 538 x 557 km, 82.5° (Epoch: 28 July)

Event Time Altitude Azimuth Distance (km) Brightness Sun altitude
Rises 20:46:00 0° 346° (NNW) 2,754 7.2 -10.6°
Reaches altitude 10° 20:48:13 10° 341° (NNW) 1,853 6.3 -10.8°
Maximum altitude 20:52:10 51° 266° (W) 705 3.1 -11.2°
Drops below altitude 10° 20:56:06 10° 190° (S) 1,833 4.6 -11.6°
Enters shadow 20:56:27 - 189° (S) 1,976 4.7 -11.7°
